Location: Eastlake (historical)
(39.0077°N, 122.6678°W)
Time: 12:25:44
(UTC+00:00)

Cosmos 1633 - Pass Details

Date: 25 November 2020
Orbit: 462 x 479 km, 82.5° (Epoch: 25 January)

Event Time Altitude Azimuth Distance (km) Brightness Sun altitude
Rises 13:08:21 0° 181° (S) 2,474 6.3 -22.3°
Reaches altitude 10° 13:10:25 10° 179° (S) 1,604 5.3 -21.9°
Maximum altitude 13:13:53 70° 96° (E) 494 2.6 -21.3°
Drops below altitude 10° 13:17:24 10° 12° (NNE) 1,619 5.2 -20.6°
Sets 13:19:30 0° 10° (N) 2,501 6.2 -20.2°
